| time (UTC) | temp F | wind direction | speed knots | gust knots | rain 1hr in | rain 24hr in | rain mn in | humidity % | barometer mb |
| 20260503050558 | 34 | 316 | 1.7 | 8.7 | 0.00 | 0.00 | 0.00 | 80 | 1011.7 |
| 20260503050058 | 35 | 341 | 3.5 | 8.7 | 0.00 | 0.00 | 0.00 | 79 | 1011.8 |
| 20260503045559 | 35 | 348 | 2.6 | 8.7 | 0.00 | 0.00 | 0.00 | 79 | 1011.8 |
| 20260503045058 | 35 | 306 | 3.5 | 8.7 | 0.00 | 0.00 | 0.00 | 79 | 1011.8 |
| 20260503044559 | 35 | 255 | 3.5 | 7.8 | 0.00 | 0.00 | 0.00 | 79 | 1011.9 |
| 20260503044058 | 35 | 12 | 2.6 | 7.8 | 0.00 | 0.00 | 0.00 | 79 | 1011.9 |
| 20260503043601 | 35 | 279 | 2.6 | 5.2 | 0.00 | 0.00 | 0.00 | 79 | 1011.9 |
| 20260503043057 | 35 | 0 | 0.9 | 7.8 | 0.00 | 0.00 | 0.00 | 79 | 1011.9 |
| 20260503042602 | 35 | 244 | 2.6 | 7.8 | 0.00 | 0.00 | 0.00 | 79 | 1011.9 |
| 20260503042058 | 35 | 304 | 3.5 | 7.8 | 0.00 | 0.00 | 0.00 | 79 | 1012.0 |
| 20260503041556 | 35 | 304 | 2.6 | 7.8 | 0.00 | 0.00 | 0.00 | 79 | 1012.0 |
| 20260503041057 | 35 | 244 | 3.5 | 7.8 | 0.00 | 0.00 | 0.00 | 79 | 1012.1 |
| 20260503040558 | 35 | 290 | 2.6 | 7.0 | 0.00 | 0.00 | 0.00 | 80 | 1012.1 |
| 20260503040057 | 35 | 0 | 0.9 | 7.8 | 0.00 | 0.00 | 0.00 | 80 | 1012.1 |
| 20260503035600 | 35 | 17 | 0.9 | 8.7 | 0.00 | 0.00 | 0.00 | 80 | 1012.0 |
| 20260503035059 | 35 | 242 | 3.5 | 9.6 | 0.00 | 0.00 | 0.00 | 80 | 1012.1 |
| 20260503034558 | 34 | 340 | 2.6 | 9.6 | 0.00 | 0.00 | 0.00 | 79 | 1012.1 |
| 20260503034100 | 34 | 325 | 1.7 | 4.3 | 0.00 | 0.00 | 0.00 | 80 | 1012.1 |
| 20260503033558 | 34 | 360 | 0.9 | 5.2 | 0.00 | 0.00 | 0.00 | 80 | 1012.0 |
| 20260503033057 | 34 | 242 | 1.7 | 7.8 | 0.00 | 0.00 | 0.00 | 80 | 1012.1 |
| 20260503032602 | 34 | 296 | 2.6 | 7.8 | 0.00 | 0.00 | 0.00 | 80 | 1012.1 |
| 20260503032058 | 34 | 316 | 1.7 | 6.1 | 0.00 | 0.00 | 0.00 | 80 | 1012.1 |
| 20260503031557 | 34 | 276 | 1.7 | 5.2 | 0.00 | 0.00 | 0.00 | 80 | 1012.1 |
| 20260503031058 | 34 | 254 | 0.9 | 5.2 | 0.00 | 0.00 | 0.00 | 80 | 1012.2 |
| 20260503030559 | 34 | 281 | 0.9 | 5.2 | 0.00 | 0.00 | 0.00 | 80 | 1012.2 |
| 20260503030131 | 34 | 250 | 1.7 | 7.8 | 0.00 | 0.00 | 0.00 | 80 | 1012.2 |
| 20260503025558 | 34 | 273 | 1.7 | 7.8 | 0.00 | 0.00 | 0.00 | 79 | 1012.2 |
| 20260503025101 | 34 | 282 | 1.7 | 9.6 | 0.00 | 0.00 | 0.00 | 79 | 1012.2 |
| 20260503024558 | 34 | 239 | 2.6 | 9.6 | 0.00 | 0.00 | 0.00 | 79 | 1012.1 |
| 20260503024058 | 35 | 0 | 0.9 | 9.6 | 0.00 | 0.00 | 0.00 | 79 | 1012.2 |
| 20260503023557 | 35 | 298 | 3.5 | 9.6 | 0.00 | 0.00 | 0.00 | 78 | 1012.2 |
| 20260503023106 | 35 | 259 | 1.7 | 7.8 | 0.00 | 0.00 | 0.00 | 78 | 1012.3 |
| 20260503022558 | 35 | 276 | 0.9 | 7.8 | 0.00 | 0.00 | 0.00 | 78 | 1012.2 |
| 20260503022102 | 35 | 242 | 2.6 | 7.8 | 0.00 | 0.00 | 0.00 | 78 | 1012.2 |
| 20260503021602 | 35 | 352 | 2.6 | 7.0 | 0.00 | 0.00 | 0.00 | 78 | 1012.3 |
| 20260503021058 | 35 | 294 | 1.7 | 7.8 | 0.00 | 0.00 | 0.00 | 77 | 1012.4 |
| 20260503020558 | 35 | 74 | 3.5 | 7.8 | 0.00 | 0.00 | 0.00 | 77 | 1012.2 |
| 20260503020059 | 35 | 309 | 0.9 | 5.2 | 0.00 | 0.00 | 0.00 | 77 | 1012.3 |
| 20260503015558 | 35 | 313 | 0.9 | 3.5 | 0.00 | 0.00 | 0.00 | 77 | 1012.4 |
| 20260503015058 | 35 | 290 | 1.7 | 4.3 | 0.00 | 0.00 | 0.00 | 77 | 1012.4 |
| 20260503014558 | 35 | 300 | 1.7 | 4.3 | 0.00 | 0.00 | 0.00 | 77 | 1012.5 |
| 20260503014058 | 35 | 13 | 1.7 | 7.0 | 0.00 | 0.00 | 0.00 | 77 | 1012.5 |
| 20260503013601 | 35 | 252 | 0.0 | 7.0 | 0.00 | 0.00 | 0.00 | 76 | 1012.5 |
| 20260503013100 | 35 | 249 | 1.7 | 7.0 | 0.00 | 0.00 | 0.00 | 76 | 1012.5 |
| 20260503012559 | 36 | 223 | 1.7 | 9.6 | 0.00 | 0.00 | 0.00 | 76 | 1012.5 |
| 20260503012055 | 36 | 279 | 1.7 | 9.6 | 0.00 | 0.00 | 0.00 | 75 | 1012.7 |
| 20260503011622 | 36 | 273 | 2.6 | 9.6 | 0.00 | 0.00 | 0.00 | 75 | 1012.6 |
| 20260503011058 | 36 | 352 | 2.6 | 9.6 | 0.00 | 0.00 | 0.00 | 74 | 1012.6 |
| 20260503010558 | 36 | 264 | 0.9 | 6.1 | 0.00 | 0.00 | 0.00 | 75 | 1012.6 |
| 20260503010059 | 36 | 149 | 0.9 | 7.8 | 0.00 | 0.00 | 0.00 | 74 | 1012.5 |
| 20260503005602 | 36 | 286 | 1.7 | 7.8 | 0.00 | 0.00 | 0.00 | 73 | 1012.5 |
| 20260503005059 | 37 | 330 | 1.7 | 7.8 | 0.00 | 0.00 | 0.00 | 73 | 1012.6 |
| 20260503004557 | 37 | 318 | 0.9 | 7.8 | 0.00 | 0.00 | 0.00 | 73 | 1012.5 |
| 20260503004058 | 37 | 268 | 2.6 | 8.7 | 0.00 | 0.00 | 0.00 | 72 | 1012.5 |
| 20260503003558 | 37 | 9 | 1.7 | 8.7 | 0.00 | 0.00 | 0.00 | 72 | 1012.4 |
| 20260503003057 | 38 | 306 | 1.7 | 7.0 | 0.00 | 0.00 | 0.00 | 71 | 1012.4 |
| 20260503002558 | 38 | 259 | 0.9 | 7.0 | 0.00 | 0.00 | 0.00 | 72 | 1012.4 |
| 20260503002103 | 38 | 352 | 1.7 | 7.0 | 0.00 | 0.00 | 0.00 | 71 | 1012.2 |
| 20260503001558 | 38 | 273 | 3.5 | 7.0 | 0.00 | 0.00 | 0.00 | 70 | 1012.1 |
| 20260503001058 | 38 | 339 | 2.6 | 7.8 | 0.00 | 0.00 | 0.00 | 70 | 1012.2 |
| 20260503000558 | 38 | 19 | 2.6 | 7.8 | 0.00 | 0.00 | 0.00 | 68 | 1012.1 |
| 20260503000110 | 38 | 5 | 2.6 | 7.8 | 0.00 | 0.00 | 0.00 | 68 | 1012.1 |
| 20260502235600 | 38 | 312 | 1.7 | 11.3 | 0.00 | 0.00 | 0.00 | 67 | 1012.1 |
| 20260502235058 | 38 | 267 | 1.7 | 11.3 | 0.00 | 0.00 | 0.00 | 66 | 1012.0 |
| 20260502234603 | 38 | 331 | 4.3 | 11.3 | 0.00 | 0.00 | 0.00 | 65 | 1012.0 |
| 20260502234059 | 39 | 40 | 2.6 | 7.8 | 0.00 | 0.00 | 0.00 | 65 | 1012.0 |
| 20260502233559 | 39 | 313 | 2.6 | 9.6 | 0.00 | 0.00 | 0.00 | 64 | 1012.0 |
| 20260502233056 | 39 | 312 | 4.3 | 9.6 | 0.00 | 0.00 | 0.00 | 62 | 1011.9 |
| 20260502232558 | 39 | 292 | 2.6 | 7.8 | 0.00 | 0.00 | 0.00 | 59 | 1011.8 |
| 20260502232100 | 39 | 267 | 2.6 | 9.6 | 0.00 | 0.00 | 0.00 | 57 | 1011.8 |
| 20260502231559 | 39 | 263 | 2.6 | 9.6 | 0.00 | 0.00 | 0.00 | 55 | 1011.8 |
| 20260502231104 | 39 | 218 | 3.5 | 9.6 | 0.00 | 0.00 | 0.00 | 54 | 1011.7 |
| 20260502230558 | 40 | 265 | 1.7 | 5.2 | 0.00 | 0.00 | 0.00 | 56 | 1011.6 |
| 20260502230056 | 40 | 262 | 0.9 | 5.2 | 0.00 | 0.00 | 0.00 | 55 | 1011.6 |
| 20260502225559 | 40 | 257 | 1.7 | 5.2 | 0.00 | 0.00 | 0.00 | 54 | 1011.6 |
| 20260502225058 | 40 | 317 | 0.9 | 6.1 | 0.00 | 0.00 | 0.00 | 55 | 1011.6 |
| 20260502224558 | 40 | 258 | 1.7 | 6.1 | 0.00 | 0.00 | 0.00 | 55 | 1011.6 |
| 20260502224100 | 40 | 287 | 1.7 | 6.1 | 0.00 | 0.00 | 0.00 | 54 | 1011.5 |
| 20260502223558 | 40 | 281 | 2.6 | 6.1 | 0.00 | 0.00 | 0.00 | 52 | 1011.5 |
| 20260502223057 | 39 | 241 | 1.7 | 7.0 | 0.00 | 0.00 | 0.00 | 51 | 1011.5 |
| 20260502222558 | 39 | 198 | 2.6 | 7.0 | 0.00 | 0.00 | 0.00 | 52 | 1011.5 |
| 20260502222058 | 39 | 268 | 1.7 | 8.7 | 0.00 | 0.00 | 0.00 | 54 | 1011.5 |
| 20260502221609 | 40 | 264 | 2.6 | 8.7 | 0.00 | 0.00 | 0.00 | 53 | 1011.5 |
| 20260502221058 | 40 | 248 | 1.7 | 8.7 | 0.00 | 0.00 | 0.00 | 53 | 1011.5 |
| 20260502220558 | 40 | 234 | 1.7 | 7.0 | 0.00 | 0.00 | 0.00 | 53 | 1011.6 |
| 20260502220109 | 40 | 0 | 2.6 | 7.0 | 0.00 | 0.00 | 0.00 | 53 | 1011.6 |
| 20260502215558 | 40 | 202 | 1.7 | 7.0 | 0.00 | 0.00 | 0.00 | 54 | 1011.5 |
| 20260502215058 | 40 | 233 | 2.6 | 7.0 | 0.00 | 0.00 | 0.00 | 55 | 1011.6 |
| 20260502214603 | 40 | 279 | 1.7 | 7.0 | 0.00 | 0.00 | 0.00 | 55 | 1011.6 |
| 20260502214058 | 40 | 148 | 2.6 | 7.0 | 0.00 | 0.00 | 0.00 | 55 | 1011.6 |
| 20260502213559 | 40 | 238 | 2.6 | 7.0 | 0.00 | 0.00 | 0.00 | 53 | 1011.6 |
| 20260502213059 | 40 | 286 | 3.5 | 7.8 | 0.00 | 0.00 | 0.00 | 53 | 1011.7 |
| 20260502212558 | 40 | 271 | 2.6 | 7.8 | 0.00 | 0.00 | 0.00 | 56 | 1011.6 |
| 20260502212059 | 40 | 284 | 1.7 | 7.8 | 0.00 | 0.00 | 0.00 | 57 | 1011.6 |
| 20260502211556 | 40 | 313 | 3.5 | 7.8 | 0.00 | 0.00 | 0.00 | 55 | 1011.6 |
| 20260502211059 | 40 | 295 | 2.6 | 7.0 | 0.00 | 0.00 | 0.00 | 55 | 1011.6 |
| 20260502210558 | 40 | 306 | 1.7 | 5.2 | 0.00 | 0.00 | 0.00 | 55 | 1011.6 |
| 20260502210120 | 41 | 13 | 2.6 | 10.4 | 0.00 | 0.00 | 0.00 | 57 | 1011.6 |
| 20260502205603 | 40 | 270 | 2.6 | 10.4 | 0.00 | 0.00 | 0.00 | 55 | 1011.5 |
| 20260502205058 | 40 | 292 | 5.2 | 10.4 | 0.00 | 0.00 | 0.00 | 57 | 1011.6 |
| 20260502204558 | 41 | 319 | 2.6 | 7.0 | 0.00 | 0.00 | 0.00 | 57 | 1011.6 |
| 20260502204058 | 41 | 289 | 3.5 | 7.8 | 0.00 | 0.00 | 0.00 | 57 | 1011.6 |
| 20260502203558 | 41 | 360 | 2.6 | 7.8 | 0.00 | 0.00 | 0.00 | 57 | 1011.6 |
| 20260502203058 | 41 | 342 | 3.5 | 11.3 | 0.00 | 0.00 | 0.00 | 58 | 1011.6 |
| 20260502202557 | 41 | 327 | 3.5 | 12.2 | 0.00 | 0.00 | 0.00 | 57 | 1011.6 |
| 20260502202101 | 42 | 321 | 6.1 | 12.2 | 0.00 | 0.00 | 0.00 | 57 | 1011.8 |
| 20260502201557 | 41 | 304 | 6.1 | 12.2 | 0.00 | 0.00 | 0.00 | 58 | 1011.9 |
| 20260502201057 | 40 | 338 | 4.3 | 7.8 | 0.00 | 0.00 | 0.00 | 62 | 1011.8 |
| 20260502200558 | 39 | 220 | 3.5 | 7.8 | 0.00 | 0.00 | 0.00 | 65 | 1012.0 |
| 20260502200122 | 39 | 238 | 2.6 | 13.0 | 0.00 | 0.00 | 0.00 | 65 | 1012.1 |
| 20260502195559 | 39 | 340 | 1.7 | 14.8 | 0.00 | 0.00 | 0.00 | 65 | 1012.1 |
| 20260502195058 | 38 | 209 | 5.2 | 14.8 | 0.00 | 0.00 | 0.00 | 66 | 1012.2 |
| 20260502194603 | 39 | 306 | 1.7 | 8.7 | 0.00 | 0.00 | 0.00 | 71 | 1012.3 |
| 20260502194058 | 39 | 233 | 2.6 | 8.7 | 0.00 | 0.00 | 0.00 | 70 | 1012.2 |
| 20260502193558 | 39 | 323 | 1.7 | 7.8 | 0.00 | 0.00 | 0.00 | 71 | 1012.2 |
| 20260502193055 | 38 | 284 | 2.6 | 7.0 | 0.00 | 0.00 | 0.00 | 73 | 1012.2 |
| 20260502192558 | 38 | 249 | 2.6 | 7.0 | 0.00 | 0.00 | 0.00 | 75 | 1012.2 |
| 20260502192059 | 37 | 243 | 1.7 | 7.0 | 0.00 | 0.00 | 0.00 | 74 | 1012.2 |
| 20260502191604 | 37 | 319 | 2.6 | 7.8 | 0.00 | 0.00 | 0.00 | 73 | 1012.3 |
| 20260502191100 | 37 | 257 | 2.6 | 9.6 | 0.00 | 0.00 | 0.00 | 73 | 1012.4 |
| 20260502190601 | 37 | 291 | 2.6 | 10.4 | 0.00 | 0.00 | 0.00 | 73 | 1012.4 |
| 20260502190059 | 38 | 360 | 3.5 | 10.4 | 0.00 | 0.00 | 0.00 | 73 | 1012.4 |
| 20260502185557 | 38 | 318 | 2.6 | 9.6 | 0.00 | 0.00 | 0.00 | 73 | 1012.4 |
| 20260502185057 | 38 | 286 | 4.3 | 9.6 | 0.00 | 0.00 | 0.00 | 72 | 1012.2 |
| 20260502184557 | 39 | 274 | 1.7 | 8.7 | 0.00 | 0.00 | 0.00 | 73 | 1012.2 |
| 20260502184057 | 40 | 300 | 2.6 | 9.6 | 0.00 | 0.00 | 0.00 | 75 | 1012.1 |
| 20260502183558 | 39 | 279 | 3.5 | 9.6 | 0.00 | 0.00 | 0.00 | 75 | 1012.1 |
| 20260502183056 | 39 | 304 | 2.6 | 9.6 | 0.00 | 0.00 | 0.00 | 76 | 1012.1 |
| 20260502182559 | 38 | 301 | 1.7 | 9.6 | 0.00 | 0.00 | 0.00 | 79 | 1012.2 |
| 20260502182057 | 38 | 352 | 2.6 | 7.0 | 0.00 | 0.00 | 0.00 | 79 | 1012.2 |
| 20260502181557 | 37 | 247 | 0.9 | 5.2 | 0.00 | 0.00 | 0.00 | 80 | 1012.2 |
| 20260502181058 | 37 | 0 | 0.9 | 6.1 | 0.00 | 0.00 | 0.00 | 80 | 1012.2 |
| 20260502180558 | 37 | 0 | 1.7 | 6.1 | 0.00 | 0.00 | 0.00 | 81 | 1012.2 |
| 20260502170108 | 35 | 235 | 0.9 | 4.3 | 0.00 | 0.00 | 0.00 | 86 | 1012.0 |
| 20260502164103 | 35 | 257 | 1.7 | 9.6 | 0.00 | 0.00 | 0.00 | 87 | 1012.1 |
| 20260502163559 | 35 | 311 | 2.6 | 7.8 | 0.00 | 0.00 | 0.00 | 88 | 1012.1 |
| 20260502163100 | 35 | 274 | 1.7 | 7.0 | 0.00 | 0.00 | 0.00 | 88 | 1012.2 |
| 20260502162600 | 34 | 5 | 1.7 | 5.2 | 0.00 | 0.00 | 0.00 | 88 | 1012.2 |
| 20260502162059 | 35 | 297 | 1.7 | 7.8 | 0.00 | 0.00 | 0.00 | 88 | 1012.2 |
| 20260502161606 | 35 | 274 | 0.9 | 7.8 | 0.00 | 0.00 | 0.00 | 88 | 1012.2 |
| 20260502161059 | 34 | 273 | 1.7 | 6.1 | 0.00 | 0.00 | 0.00 | 88 | 1012.2 |
| 20260502160559 | 34 | 250 | 0.9 | 7.8 | 0.00 | 0.00 | 0.00 | 88 | 1012.1 |
| 20260502152100 | 33 | 284 | 0.0 | 6.1 | 0.00 | 0.00 | 0.00 | 87 | 1012.4 |
| 20260502151612 | 33 | 275 | 0.9 | 6.1 | 0.00 | 0.00 | 0.00 | 86 | 1012.4 |
| 20260502151059 | 34 | 300 | 3.5 | 12.2 | 0.00 | 0.00 | 0.00 | 85 | 1012.4 |
| 20260502150600 | 34 | 156 | 3.5 | 12.2 | 0.00 | 0.00 | 0.00 | 84 | 1012.4 |
| 20260502130600 | 37 | 239 | 1.7 | 8.7 | 0.00 | 0.00 | 0.00 | 83 | 1012.2 |
| 20260502130107 | 37 | 213 | 1.7 | 8.7 | 0.00 | 0.00 | 0.00 | 84 | 1012.2 |
| 20260502123559 | 37 | 225 | 1.7 | 7.0 | 0.00 | 0.00 | 0.00 | 84 | 1012.2 |
| 20260502123100 | 36 | 282 | 2.6 | 7.8 | 0.00 | 0.00 | 0.00 | 84 | 1012.1 |
| 20260502122602 | 37 | 262 | 3.5 | 7.8 | 0.00 | 0.00 | 0.00 | 84 | 1012.0 |
| 20260502122059 | 37 | 259 | 1.7 | 7.0 | 0.00 | 0.00 | 0.00 | 85 | 1012.0 |
| 20260502121558 | 37 | 290 | 0.9 | 6.1 | 0.00 | 0.00 | 0.00 | 85 | 1011.9 |
| 20260502121059 | 37 | 234 | 2.6 | 6.1 | 0.00 | 0.00 | 0.00 | 85 | 1011.9 |
| 20260502120559 | 37 | 290 | 1.7 | 5.2 | 0.00 | 0.00 | 0.00 | 86 | 1011.9 |
| 20260502120104 | 38 | 212 | 0.9 | 3.5 | 0.00 | 0.00 | 0.00 | 87 | 1011.9 |
| 20260502115602 | 37 | 314 | 0.9 | 4.3 | 0.00 | 0.00 | 0.00 | 88 | 1011.8 |
| 20260502115059 | 36 | 269 | 0.9 | 4.3 | 0.00 | 0.00 | 0.00 | 88 | 1011.8 |
| 20260502114557 | 36 | 223 | 1.7 | 4.3 | 0.00 | 0.00 | 0.00 | 88 | 1011.8 |
| 20260502114102 | 36 | 263 | 0.9 | 3.5 | 0.00 | 0.00 | 0.00 | 88 | 1011.8 |
| 20260502113600 | 36 | 0 | 0.9 | 3.5 | 0.00 | 0.00 | 0.00 | 88 | 1011.7 |
| 20260502113058 | 36 | 0 | 0.0 | 1.7 | 0.00 | 0.00 | 0.00 | 89 | 1011.8 |
| 20260502112559 | 36 | 263 | 0.9 | 2.6 | 0.00 | 0.00 | 0.00 | 89 | 1011.7 |
| 20260502112059 | 36 | 0 | 0.0 | 2.6 | 0.00 | 0.00 | 0.00 | 90 | 1011.8 |
| 20260502111557 | 36 | 222 | 0.0 | 2.6 | 0.00 | 0.00 | 0.00 | 89 | 1011.9 |
| 20260502111059 | 35 | 0 | 0.0 | 1.7 | 0.00 | 0.00 | 0.00 | 89 | 1011.9 |
| 20260502110600 | 36 | 278 | 0.0 | 3.5 | 0.00 | 0.00 | 0.00 | 90 | 1012.0 |
| 20260502110103 | 35 | 0 | 0.9 | 3.5 | 0.00 | 0.00 | 0.00 | 89 | 1012.0 |
| 20260502105559 | 35 | 276 | 1.7 | 3.5 | 0.00 | 0.00 | 0.00 | 90 | 1011.9 |
| 20260502105059 | 35 | 261 | 0.9 | 3.5 | 0.00 | 0.00 | 0.00 | 90 | 1011.8 |
| 20260502104600 | 35 | 0 | 0.0 | 2.6 | 0.00 | 0.00 | 0.00 | 90 | 1011.8 |
| 20260502104059 | 35 | 0 | 0.0 | 2.6 | 0.00 | 0.00 | 0.00 | 90 | 1011.7 |
| 20260502103600 | 35 | 282 | 0.9 | 2.6 | 0.00 | 0.00 | 0.00 | 90 | 1011.6 |
| 20260502103107 | 35 | 279 | 0.9 | 2.6 | 0.00 | 0.00 | 0.00 | 90 | 1011.6 |
| 20260502102602 | 35 | 259 | 0.9 | 3.5 | 0.00 | 0.00 | 0.00 | 90 | 1011.6 |
| 20260502102058 | 35 | 0 | 0.9 | 3.5 | 0.00 | 0.00 | 0.00 | 90 | 1011.5 |
| 20260502101615 | 35 | 245 | 0.9 | 3.5 | 0.00 | 0.00 | 0.00 | 89 | 1011.5 |
| 20260502101100 | 35 | 245 | 1.7 | 5.2 | 0.00 | 0.00 | 0.00 | 90 | 1011.5 |
| 20260502100558 | 35 | 285 | 1.7 | 5.2 | 0.00 | 0.00 | 0.00 | 90 | 1011.5 |
| 20260502100104 | 35 | 219 | 0.9 | 2.6 | 0.00 | 0.00 | 0.00 | 90 | 1011.4 |
| 20260502091058 | 35 | 217 | 0.9 | 3.5 | 0.00 | 0.00 | 0.00 | 89 | 1011.4 |
| 20260502090559 | 35 | 230 | 0.9 | 3.5 | 0.00 | 0.00 | 0.00 | 89 | 1011.3 |
| 20260502090115 | 35 | 0 | 0.9 | 3.5 | 0.00 | 0.00 | 0.00 | 89 | 1011.2 |
| 20260502080105 | 35 | 360 | 0.9 | 3.5 | 0.00 | 0.00 | 0.00 | 89 | 1010.4 |
| 20260502071058 | 35 | 281 | 0.9 | 3.5 | 0.00 | 0.00 | 0.00 | 89 | 1011.0 |
| 20260502070559 | 35 | 287 | 0.0 | 2.6 | 0.00 | 0.00 | 0.00 | 89 | 1011.0 |
| 20260502070113 | 35 | 285 | 0.9 | 2.6 | 0.00 | 0.00 | 0.00 | 89 | 1011.0 |
| 20260502065557 | 35 | 276 | 0.9 | 2.6 | 0.00 | 0.00 | 0.00 | 89 | 1011.0 |
| 20260502065059 | 35 | 287 | 0.9 | 2.6 | 0.00 | 0.00 | 0.00 | 89 | 1010.9 |
| 20260502064623 | 35 | 282 | 0.0 | 1.7 | 0.00 | 0.00 | 0.00 | 89 | 1011.0 |
| 20260502064059 | 35 | 281 | 0.0 | 0.0 | 0.00 | 0.00 | 0.00 | 89 | 1011.1 |
| 20260502063559 | 35 | 0 | 0.0 | 1.7 | 0.00 | 0.00 | 0.00 | 89 | 1011.1 |
| 20260502063101 | 35 | 0 | 0.0 | 2.6 | 0.00 | 0.00 | 0.00 | 89 | 1011.1 |
| 20260502062559 | 35 | 0 | 0.9 | 2.6 | 0.00 | 0.00 | 0.00 | 89 | 1011.1 |
| 20260502062058 | 35 | 248 | 0.9 | 2.6 | 0.00 | 0.00 | 0.00 | 89 | 1011.2 |
| 20260502061601 | 35 | 252 | 0.9 | 2.6 | 0.00 | 0.00 | 0.00 | 89 | 1011.1 |
| 20260502061059 | 35 | 250 | 0.9 | 3.5 | 0.00 | 0.00 | 0.00 | 88 | 1011.1 |
| 20260502060558 | 35 | 273 | 0.9 | 3.5 | 0.00 | 0.00 | 0.00 | 88 | 1011.2 |
| 20260502060059 | 35 | 272 | 1.7 | 2.6 | 0.00 | 0.00 | 0.00 | 88 | 1011.3 |
| 20260502055558 | 36 | 276 | 0.0 | 2.6 | 0.00 | 0.00 | 0.00 | 89 | 1011.2 |
| 20260502055059 | 35 | 293 | 0.0 | 2.6 | 0.00 | 0.00 | 0.00 | 88 | 1011.3 |
| 20260502054612 | 36 | 283 | 0.0 | 5.2 | 0.00 | 0.00 | 0.00 | 88 | 1011.3 |
| 20260502054101 | 36 | 286 | 1.7 | 5.2 | 0.00 | 0.00 | 0.00 | 88 | 1011.4 |
| 20260502053559 | 36 | 275 | 0.9 | 2.6 | 0.00 | 0.00 | 0.00 | 88 | 1011.3 |
| 20260502053057 | 36 | 213 | 0.9 | 2.6 | 0.00 | 0.00 | 0.00 | 88 | 1011.3 |
| 20260502052559 | 36 | 0 | 0.0 | 0.9 | 0.00 | 0.00 | 0.00 | 88 | 1011.4 |
| 20260502052102 | 36 | 0 | 0.0 | 0.0 | 0.00 | 0.00 | 0.00 | 88 | 1011.3 |
| 20260502051559 | 36 | 0 | 0.0 | 0.0 | 0.00 | 0.00 | 0.00 | 88 | 1011.3 |
| 20260502051059 | 36 | 0 | 0.0 | 0.0 | 0.00 | 0.00 | 0.00 | 88 | 1011.3 |